Location: Unspecified
(48.5670°N, 0.0000°E)
Time: 16:18:20
(UTC+00:00)

Transit 4A - Pass Details

Date: 31 August 2019
Orbit: 865 x 979 km, 66.8° (Epoch: 22 September)

Event Time Altitude Azimuth Distance (km) Brightness Sun altitude
Rises 02:19:16 0° 316° (NW) 3,618 11.1 -25.0°
Reaches altitude 10° 02:22:25 10° 301° (WNW) 2,648 10.2 -24.7°
Enters shadow 02:23:48 15° 291° (WNW) 2,302 9.8 -24.6°
